,,,PA_Meas_PMT16A,,PR_Meas_QMR101_102,,RH_Meas_QMH101,,SR_Meas_QMS101,,TA_Meas_QMH101,,GenWind,,GenWind,
date,time,status,PA,status,PR,status,RH,status,SR,status,TA,status,DirAvg,status,SpdAvg,
2009-03-19, 00:00:04,VALID,1009.2,VALID,0,VALID,84.806,VALID,0.105969,VALID,23.4584,VALID,41,VALID,0,
2009-03-19, 00:01:04,VALID,1009.21,VALID,0,VALID,84.7374,VALID,0.105969,VALID,23.4389,VALID,41,VALID,0,
2009-03-19, 00:02:04,VALID,1009.21,VALID,0,VALID,84.6764,VALID,0.105969,VALID,23.4194,VALID,41,VALID,0,
2009-03-19, 00:03:04,VALID,1009.18,VALID,0,VALID,84.6459,VALID,0,VALID,23.4,VALID,41,VALID,0,
2009-03-19, 00:04:04,VALID,1009.17,VALID,0,VALID,84.6459,VALID,0.105969,VALID,23.4,VALID,41,VALID,0,
2009-03-19, 00:05:04,VALID,1009.15,VALID,0,VALID,84.6459,VALID,0,VALID,23.3805,VALID,41,VALID,0,
2009-03-19, 00:06:04,VALID,1009.14,VALID,0,VALID,84.6459,VALID,0,VALID,23.4,VALID,41,VALID,0,
2009-03-19, 00:07:04,VALID,1009.12,VALID,0,VALID,84.6535,VALID,0.105969,VALID,23.3805,VALID,41,VALID,0,
2009-03-19, 00:08:04,VALID,1009.11,VALID,0,VALID,84.6916,VALID,0,VALID,23.3805,VALID,41,VALID,0,
2009-03-19, 00:09:04,VALID,1009.11,VALID,0,VALID,84.684,VALID,0.105969,VALID,23.4,VALID,41,VALID,0,
2009-03-19, 00:10:04,VALID,1009.08,VALID,0,VALID,84.7526,VALID,0.105969,VALID,23.4,VALID,41,VALID,0,
2009-03-19, 00:11:04,VALID,1009.08,VALID,0,VALID,84.7679,VALID,0,VALID,23.4,VALID,41,VALID,0,
2009-03-19, 00:12:04,VALID,1009.05,VALID,0,VALID,84.7908,VALID,0,VALID,23.4,VALID,41,VALID,0,
2009-03-19, 00:13:04,VALID,1009.05,VALID,0,VALID,84.806,VALID,0,VALID,23.4017,VALID,41,VALID,0,
2009-03-19, 00:14:04,VALID,1009.01,VALID,0,VALID,84.806,VALID,0,VALID,23.4017,VALID,41,VALID,0,
2009-03-19, 00:15:04,VALID,1009.02,VALID,0,VALID,84.7984,VALID,0,VALID,23.3805,VALID,41,VALID,0,
2009-03-19, 00:16:04,VALID,1009.03,VALID,0,VALID,84.8289,VALID,0,VALID,23.3823,VALID,41,VALID,0,
2009-03-19, 00:17:04,VALID,1009,VALID,0,VALID,84.8594,VALID,0,VALID,23.3823,VALID,41,VALID,0,
2009-03-19, 00:18:04,VALID,1009,VALID,0,VALID,84.8899,VALID,0,VALID,23.4212,VALID,41,VALID,0,
2009-03-19, 00:19:04,VALID,1008.97,VALID,0,VALID,84.9509,VALID,0,VALID,23.4407,VALID,41,VALID,0,
2009-03-19, 00:20:04,VALID,1008.98,VALID,0,VALID,84.9814,VALID,0,VALID,23.4407,VALID,41,VALID,0,
2009-03-19, 00:21:04,VALID,1008.97,VALID,0,VALID,85.0272,VALID,0,VALID,23.4602,VALID,41,VALID,0,
2009-03-19, 00:22:04,VALID,1008.97,VALID,0,VALID,85.05,VALID,0,VALID,23.4389,VALID,41,VALID,0,
2009-03-19, 00:23:04,VALID,1008.96,VALID,0,VALID,85.0653,VALID,0,VALID,23.4389,VALID,41,VALID,0,
2009-03-19, 00:24:04,VALID,1008.96,VALID,0,VALID,85.0958,VALID,0,VALID,23.4407,VALID,41,VALID,0,
2009-03-19, 00:25:04,VALID,1008.96,VALID,0,VALID,85.0958,VALID,0,VALID,23.4194,VALID,41,VALID,0,
2009-03-19, 00:26:04,VALID,1008.96,VALID,0,VALID,85.1034,VALID,0,VALID,23.4017,VALID,41,VALID,0,
2009-03-19, 00:27:04,VALID,1008.95,VALID,0,VALID,85.1339,VALID,0,VALID,23.4212,VALID,41,VALID,0,
2009-03-19, 00:28:04,VALID,1008.96,VALID,0,VALID,85.1187,VALID,0,VALID,23.4017,VALID,41,VALID,0,
2009-03-19, 00:29:04,VALID,1008.94,VALID,0,VALID,85.1263,VALID,0,VALID,23.3823,VALID,41,VALID,0,
2009-03-19, 00:30:04,VALID,1008.94,VALID,0,VALID,85.1187,VALID,0,VALID,23.3433,VALID,41,VALID,0,
2009-03-19, 00:31:04,VALID,1008.95,VALID,0,VALID,85.1187,VALID,0,VALID,23.3238,VALID,41,VALID,0,
2009-03-19, 00:32:04,VALID,1008.96,VALID,0,VALID,85.1263,VALID,0,VALID,23.3026,VALID,41,VALID,0,
2009-03-19, 00:33:04,VALID,1008.96,VALID,0,VALID,85.1339,VALID,0,VALID,23.3238,VALID,41,VALID,0,
2009-03-19, 00:34:04,VALID,1008.97,VALID,0,VALID,85.1492,VALID,0,VALID,23.3238,VALID,41,VALID,0,
2009-03-19, 00:35:04,VALID,1008.94,VALID,0,VALID,85.2025,VALID,0,VALID,23.3433,VALID,41,VALID,0,
2009-03-19, 00:36:04,VALID,1008.93,VALID,0,VALID,85.2102,VALID,0,VALID,23.3238,VALID,41,VALID,0,
2009-03-19, 00:37:04,VALID,1008.91,VALID,0,VALID,85.2025,VALID,0,VALID,23.3043,VALID,41,VALID,0,
2009-03-19, 00:38:04,VALID,1008.91,VALID,0,VALID,85.233,VALID,0,VALID,23.3043,VALID,41,VALID,0,
2009-03-19, 00:39:04,VALID,1008.88,VALID,0,VALID,85.2178,VALID,0,VALID,23.3043,VALID,41,VALID,0,
2009-03-19, 00:40:04,VALID,1008.85,VALID,0,VALID,85.2635,VALID,0,VALID,23.3238,VALID,41,VALID,0,
2009-03-19, 00:41:04,VALID,1008.84,VALID,0,VALID,85.2635,VALID,0,VALID,23.3238,VALID,41,VALID,0,
2009-03-19, 00:42:04,VALID,1008.8,VALID,0,VALID,85.2788,VALID,0,VALID,23.3433,VALID,41,VALID,0,
2009-03-19, 00:43:04,VALID,1008.81,VALID,0,VALID,85.2635,VALID,0.105969,VALID,23.3415,VALID,41,VALID,0,
2009-03-19, 00:44:04,VALID,1008.8,VALID,0,VALID,85.2635,VALID,0.105969,VALID,23.3008,VALID,41,VALID,0,
2009-03-19, 00:45:04,VALID,1008.8,VALID,0,VALID,85.2407,VALID,0.105969,VALID,23.3008,VALID,41,VALID,0,
2009-03-19, 00:46:04,VALID,1008.77,VALID,0,VALID,85.2102,VALID,0.105969,VALID,23.3026,VALID,41,VALID,0,
2009-03-19, 00:47:04,VALID,1008.75,VALID,0,VALID,85.1873,VALID,0.105969,VALID,23.2831,VALID,41,VALID,0,
2009-03-19, 00:48:04,VALID,1008.74,VALID,0,VALID,85.1644,VALID,0.105969,VALID,23.2618,VALID,41,VALID,0,
2009-03-19, 00:49:04,VALID,1008.73,VALID,0,VALID,85.1415,VALID,0.105969,VALID,23.2636,VALID,41,VALID,0,
2009-03-19, 00:50:04,VALID,1008.71,VALID,0,VALID,85.1415,VALID,0,VALID,23.2636,VALID,41,VALID,0,
2009-03-19, 00:51:04,VALID,1008.69,VALID,0,VALID,85.111,VALID,0.105969,VALID,23.2441,VALID,41,VALID,0,
2009-03-19, 00:52:04,VALID,1008.67,VALID,0,VALID,85.1263,VALID,0.105969,VALID,23.2441,VALID,41,VALID,0,
2009-03-19, 00:53:04,VALID,1008.67,VALID,0,VALID,85.1415,VALID,0.105969,VALID,23.2246,VALID,41,VALID,0,
2009-03-19, 00:54:04,VALID,1008.66,VALID,0,VALID,85.1415,VALID,0.105969,VALID,23.2246,VALID,41,VALID,0,
2009-03-19, 00:55:04,VALID,1008.58,VALID,0,VALID,85.172,VALID,0.105969,VALID,23.2034,VALID,41,VALID,0,
2009-03-19, 00:56:04,VALID,1008.59,VALID,0,VALID,85.1644,VALID,0.105969,VALID,23.2051,VALID,41,VALID,0,
2009-03-19, 00:57:04,VALID,1008.58,VALID,0,VALID,85.172,VALID,0.105969,VALID,23.2034,VALID,41,VALID,0,
2009-03-19, 00:58:04,VALID,1008.56,VALID,0,VALID,85.172,VALID,0,VALID,23.2069,VALID,41,VALID,0,
2009-03-19, 00:59:04,VALID,1008.54,VALID,0,VALID,85.2102,VALID,0,VALID,23.1874,VALID,41,VALID,0,
2009-03-19, 01:00:04,VALID,1008.54,VALID,0,VALID,85.2102,VALID,0,VALID,23.1679,VALID,41,VALID,0,
2009-03-19, 01:01:04,VALID,1008.54,VALID,0,VALID,85.2407,VALID,0,VALID,23.1679,VALID,41,VALID,0,
2009-03-19, 01:02:04,VALID,1008.51,VALID,0,VALID,85.2635,VALID,0,VALID,23.1679,VALID,41,VALID,0,
2009-03-19, 01:03:04,VALID,1008.5,VALID,0,VALID,85.2864,VALID,0,VALID,23.1679,VALID,41,VALID,0,
2009-03-19, 01:04:04,VALID,1008.49,VALID,0,VALID,85.2941,VALID,0,VALID,23.1679,VALID,41,VALID,0,
2009-03-19, 01:05:04,VALID,1008.47,VALID,0,VALID,85.2941,VALID,0,VALID,23.129,VALID,41,VALID,0,
2009-03-19, 01:06:04,VALID,1008.42,VALID,0,VALID,85.3017,VALID,0,VALID,23.129,VALID,41,VALID,0,
2009-03-19, 01:07:04,VALID,1008.42,VALID,0,VALID,85.3322,VALID,0,VALID,23.129,VALID,41,VALID,0,
2009-03-19, 01:08:04,VALID,1008.42,VALID,0,VALID,85.3322,VALID,0,VALID,23.1095,VALID,41,VALID,0,
2009-03-19, 01:09:04,VALID,1008.42,VALID,0,VALID,85.3322,VALID,0,VALID,23.09,VALID,41,VALID,0,
2009-03-19, 01:10:04,VALID,1008.4,VALID,0,VALID,85.3474,VALID,0,VALID,23.0688,VALID,41,VALID,0,
2009-03-19, 01:11:04,VALID,1008.4,VALID,0,VALID,85.3703,VALID,0,VALID,23.09,VALID,41,VALID,0,
2009-03-19, 01:12:04,VALID,1008.4,VALID,0,VALID,85.3856,VALID,0,VALID,23.0493,VALID,41,VALID,0,
2009-03-19, 01:13:04,VALID,1008.37,VALID,0,VALID,85.3856,VALID,0,VALID,23.0298,VALID,41,VALID,0,
2009-03-19, 01:14:04,VALID,1008.38,VALID,0,VALID,85.3932,VALID,0,VALID,23.0298,VALID,41,VALID,0,
2009-03-19, 01:15:04,VALID,1008.37,VALID,0,VALID,85.4084,VALID,0,VALID,23.0298,VALID,41,VALID,0,
2009-03-19, 01:16:04,VALID,1008.36,VALID,0,VALID,85.4313,VALID,0.105969,VALID,23.0103,VALID,41,VALID,0,
2009-03-19, 01:17:04,VALID,1008.34,VALID,0,VALID,85.4237,VALID,0,VALID,23.0103,VALID,41,VALID,0,
2009-03-19, 01:18:04,VALID,1008.31,VALID,0,VALID,85.4237,VALID,0,VALID,22.9909,VALID,41,VALID,0,
2009-03-19, 01:19:04,VALID,1008.31,VALID,0,VALID,85.4313,VALID,0.105969,VALID,22.9696,VALID,41,VALID,0,
2009-03-19, 01:20:04,VALID,1008.3,VALID,0,VALID,85.4466,VALID,0.105969,VALID,22.9519,VALID,41,VALID,0,
2009-03-19, 01:21:04,VALID,1008.27,VALID,0,VALID,85.4466,VALID,0,VALID,22.9519,VALID,41,VALID,0,
2009-03-19, 01:22:04,VALID,1008.28,VALID,0,VALID,85.4466,VALID,0.105969,VALID,22.9519,VALID,41,VALID,0,
2009-03-19, 01:23:04,VALID,1008.27,VALID,0,VALID,85.4771,VALID,0,VALID,22.9324,VALID,41,VALID,0,
2009-03-19, 01:24:04,VALID,1008.29,VALID,0,VALID,85.4771,VALID,0.105969,VALID,22.9324,VALID,41,VALID,0,
2009-03-19, 01:25:04,VALID,1008.29,VALID,0,VALID,85.4771,VALID,0.105969,VALID,22.9129,VALID,41,VALID,0,
2009-03-19, 01:26:04,VALID,1008.3,VALID,0,VALID,85.4847,VALID,0.105969,VALID,22.8935,VALID,41,VALID,0,
2009-03-19, 01:27:04,VALID,1008.26,VALID,0,VALID,85.4694,VALID,0,VALID,22.8723,VALID,41,VALID,0,
2009-03-19, 01:28:04,VALID,1008.29,VALID,0,VALID,85.4923,VALID,0,VALID,22.8757,VALID,41,VALID,0,
2009-03-19, 01:29:04,VALID,1008.25,VALID,0,VALID,85.4923,VALID,0,VALID,22.8952,VALID,41,VALID,0,
2009-03-19, 01:30:04,VALID,1008.26,VALID,0,VALID,85.4923,VALID,0,VALID,22.8952,VALID,41,VALID,0,
2009-03-19, 01:31:04,VALID,1008.25,VALID,0,VALID,85.5152,VALID,0,VALID,22.8757,VALID,41,VALID,0,
2009-03-19, 01:32:04,VALID,1008.26,VALID,0,VALID,85.5228,VALID,0,VALID,22.9147,VALID,41,VALID,0,
2009-03-19, 01:33:04,VALID,1008.28,VALID,0,VALID,85.5381,VALID,0,VALID,22.9147,VALID,41,VALID,0,
2009-03-19, 01:34:04,VALID,1008.25,VALID,0,VALID,85.5533,VALID,0,VALID,22.9147,VALID,41,VALID,0,
2009-03-19, 01:35:04,VALID,1008.24,VALID,0,VALID,85.5915,VALID,0,VALID,22.9129,VALID,41,VALID,0,
2009-03-19, 01:36:04,VALID,1008.23,VALID,0,VALID,85.5762,VALID,0,VALID,22.874,VALID,41,VALID,0,
2009-03-19, 01:37:04,VALID,1008.25,VALID,0,VALID,85.6143,VALID,0,VALID,22.8952,VALID,41,VALID,0,
2009-03-19, 01:38:04,VALID,1008.25,VALID,0,VALID,85.5915,VALID,0,VALID,22.8952,VALID,41,VALID,0,
2009-03-19, 01:39:04,VALID,1008.23,VALID,0,VALID,85.6143,VALID,0,VALID,22.8757,VALID,41,VALID,0,
2009-03-19, 01:40:04,VALID,1008.26,VALID,0,VALID,85.6296,VALID,0,VALID,22.8757,VALID,41,VALID,0,
2009-03-19, 01:41:04,VALID,1008.27,VALID,0,VALID,85.6067,VALID,0,VALID,22.8952,VALID,41,VALID,0,
2009-03-19, 01:42:04,VALID,1008.28,VALID,0,VALID,85.6372,VALID,0,VALID,22.8935,VALID,41,VALID,0,
2009-03-19, 01:43:04,VALID,1008.26,VALID,0,VALID,85.6372,VALID,0,VALID,22.8952,VALID,41,VALID,0,
2009-03-19, 01:44:04,VALID,1008.28,VALID,0,VALID,85.6448,VALID,0,VALID,22.8952,VALID,41,VALID,0,
2009-03-19, 01:45:04,VALID,1008.26,VALID,0,VALID,85.6448,VALID,0,VALID,22.8952,VALID,41,VALID,0,
2009-03-19, 01:46:04,VALID,1008.28,VALID,0,VALID,85.6448,VALID,0,VALID,22.8952,VALID,41,VALID,0,
2009-03-19, 01:47:04,VALID,1008.29,VALID,0,VALID,85.6525,VALID,0,VALID,22.874,VALID,41,VALID,0,
2009-03-19, 01:48:04,VALID,1008.28,VALID,0,VALID,85.6448,VALID,0,VALID,22.8952,VALID,41,VALID,0,
2009-03-19, 01:49:04,VALID,1008.28,VALID,0,VALID,85.6753,VALID,0,VALID,22.8562,VALID,41,VALID,0,
2009-03-19, 01:50:04,VALID,1008.3,VALID,0,VALID,85.6677,VALID,0,VALID,22.8173,VALID,41,VALID,0,
2009-03-19, 01:51:04,VALID,1008.28,VALID,0,VALID,85.6448,VALID,0,VALID,22.8173,VALID,41,VALID,0,
2009-03-19, 01:52:04,VALID,1008.26,VALID,0,VALID,85.6525,VALID,0,VALID,22.7978,VALID,41,VALID,0,
2009-03-19, 01:53:04,VALID,1008.27,VALID,0,VALID,85.6448,VALID,0,VALID,22.7783,VALID,41,VALID,0,
2009-03-19, 01:54:04,VALID,1008.25,VALID,0,VALID,85.6677,VALID,0,VALID,22.7588,VALID,41,VALID,0,
2009-03-19, 01:55:04,VALID,1008.23,VALID,0,VALID,85.6448,VALID,0,VALID,22.7588,VALID,41,VALID,0,
2009-03-19, 01:56:04,VALID,1008.19,VALID,0,VALID,85.6753,VALID,0,VALID,22.7783,VALID,41,VALID,0,
2009-03-19, 01:57:04,VALID,1008.16,VALID,0,VALID,85.6677,VALID,0,VALID,22.7783,VALID,41,VALID,0,
2009-03-19, 01:58:04,VALID,1008.17,VALID,0,VALID,85.683,VALID,0,VALID,22.7961,VALID,41,VALID,0,
2009-03-19, 01:59:04,VALID,1008.17,VALID,0,VALID,85.6906,VALID,0,VALID,22.8155,VALID,41,VALID,0,
2009-03-19, 02:00:04,VALID,1008.16,VALID,0,VALID,85.7058,VALID,0,VALID,22.835,VALID,41,VALID,0,
2009-03-19, 02:01:04,VALID,1008.17,VALID,0,VALID,85.6982,VALID,0,VALID,22.835,VALID,41,VALID,0,
2009-03-19, 02:02:04,VALID,1008.16,VALID,0,VALID,85.7135,VALID,0,VALID,22.8562,VALID,41,VALID,0,
2009-03-19, 02:03:04,VALID,1008.15,VALID,0,VALID,85.7058,VALID,0,VALID,22.8545,VALID,41,VALID,0,
2009-03-19, 02:04:04,VALID,1008.14,VALID,0,VALID,85.7058,VALID,0,VALID,22.8952,VALID,71,VALID,0.568359,
2009-03-19, 02:05:04,VALID,1008.15,VALID,0,VALID,85.7058,VALID,0,VALID,22.8757,VALID,76,VALID,0.508594,
2009-03-19, 02:06:04,VALID,1008.15,VALID,0,VALID,85.6906,VALID,0,VALID,22.8545,VALID,74,VALID,0.176563,
2009-03-19, 02:07:04,VALID,1008.13,VALID,0,VALID,85.7058,VALID,0,VALID,22.8545,VALID,74,VALID,0.148828,
2009-03-19, 02:08:04,VALID,1008.13,VALID,0,VALID,85.7058,VALID,0,VALID,22.8545,VALID,74,VALID,0.0105469,
2009-03-19, 02:09:04,VALID,1008.11,VALID,0,VALID,85.6906,VALID,0,VALID,22.8562,VALID,74,VALID,0.177344,
2009-03-19, 02:10:04,VALID,1008.11,VALID,0,VALID,85.6753,VALID,0,VALID,22.8562,VALID,74,VALID,0,
2009-03-19, 02:11:04,VALID,1008.12,VALID,0,VALID,85.683,VALID,0,VALID,22.8562,VALID,74,VALID,0,
2009-03-19, 02:12:04,VALID,1008.09,VALID,0,VALID,85.6525,VALID,0,VALID,22.8173,VALID,74,VALID,0,
2009-03-19, 02:13:04,VALID,1008.09,VALID,0,VALID,85.6448,VALID,0,VALID,22.8173,VALID,74,VALID,0,
2009-03-19, 02:14:04,VALID,1008.11,VALID,0,VALID,85.6448,VALID,0,VALID,22.7978,VALID,74,VALID,0,
2009-03-19, 02:15:04,VALID,1008.09,VALID,0,VALID,85.6677,VALID,0,VALID,22.7766,VALID,74,VALID,0,
2009-03-19, 02:16:04,VALID,1008.12,VALID,0,VALID,85.6677,VALID,0,VALID,22.7978,VALID,74,VALID,0,
2009-03-19, 02:17:04,VALID,1008.12,VALID,0,VALID,85.6677,VALID,0,VALID,22.7961,VALID,74,VALID,0,
2009-03-19, 02:18:04,VALID,1008.09,VALID,0,VALID,85.6601,VALID,0,VALID,22.7766,VALID,74,VALID,0,
2009-03-19, 02:19:04,VALID,1008.09,VALID,0,VALID,85.6448,VALID,0,VALID,22.7783,VALID,74,VALID,0,
2009-03-19, 02:20:04,VALID,1008.1,VALID,0,VALID,85.6448,VALID,0,VALID,22.7766,VALID,74,VALID,0.0644531,
2009-03-19, 02:21:04,VALID,1008.08,VALID,0,VALID,85.6448,VALID,0,VALID,22.7978,VALID,74,VALID,0.0121094,
2009-03-19, 02:22:04,VALID,1008.07,VALID,0,VALID,85.6601,VALID,0,VALID,22.7588,VALID,74,VALID,0.0226563,
2009-03-19, 02:23:04,VALID,1008.08,VALID,0,VALID,85.6448,VALID,0,VALID,22.7182,VALID,80,VALID,0.405078,
2009-03-19, 02:24:04,VALID,1008.07,VALID,0,VALID,85.6372,VALID,0,VALID,22.7182,VALID,126,VALID,0.595312,
2009-03-19, 02:25:04,VALID,1008.04,VALID,0,VALID,85.6372,VALID,0,VALID,22.7199,VALID,90,VALID,0.79375,
2009-03-19, 02:26:04,VALID,1008.01,VALID,0,VALID,85.6372,VALID,0,VALID,22.7199,VALID,85,VALID,0.375,
2009-03-19, 02:27:04,VALID,1008,VALID,0,VALID,85.6143,VALID,0,VALID,22.6809,VALID,85,VALID,0.136328,
2009-03-19, 02:28:04,VALID,1007.98,VALID,0,VALID,85.5686,VALID,0,VALID,22.6809,VALID,85,VALID,0,
2009-03-19, 02:29:04,VALID,1007.98,VALID,0,VALID,85.5991,VALID,0,VALID,22.6809,VALID,85,VALID,0,
2009-03-19, 02:30:04,VALID,1007.95,VALID,0,VALID,85.5838,VALID,0.105969,VALID,22.6792,VALID,85,VALID,0,
2009-03-19, 02:31:04,VALID,1007.96,VALID,0,VALID,85.5457,VALID,0.105969,VALID,22.6597,VALID,85,VALID,0,
2009-03-19, 02:32:04,VALID,1007.96,VALID,0,VALID,85.5457,VALID,0.105969,VALID,22.6597,VALID,85,VALID,0,
2009-03-19, 02:33:04,VALID,1007.97,VALID,0,VALID,85.5457,VALID,0.105969,VALID,22.6597,VALID,85,VALID,0,
2009-03-19, 02:34:04,VALID,1007.94,VALID,0,VALID,85.5381,VALID,0.105969,VALID,22.6597,VALID,85,VALID,0,
2009-03-19, 02:35:04,VALID,1007.96,VALID,0,VALID,85.5533,VALID,0.105969,VALID,22.6792,VALID,85,VALID,0,
2009-03-19, 02:36:04,VALID,1007.95,VALID,0,VALID,85.5533,VALID,0.105969,VALID,22.658,VALID,85,VALID,0,
2009-03-19, 02:37:04,VALID,1007.91,VALID,0,VALID,85.5457,VALID,0.105969,VALID,22.658,VALID,85,VALID,0,
2009-03-19, 02:38:04,VALID,1007.94,VALID,0,VALID,85.5228,VALID,0.105969,VALID,22.6385,VALID,85,VALID,0,
2009-03-19, 02:39:04,VALID,1007.91,VALID,0,VALID,85.5304,VALID,0.105969,VALID,22.6402,VALID,85,VALID,0,
2009-03-19, 02:40:04,VALID,1007.92,VALID,0,VALID,85.5152,VALID,0.105969,VALID,22.5801,VALID,85,VALID,0,
2009-03-19, 02:41:04,VALID,1007.9,VALID,0,VALID,85.5076,VALID,0.211938,VALID,22.5606,VALID,85,VALID,0,
2009-03-19, 02:42:04,VALID,1007.9,VALID,0,VALID,85.4999,VALID,0.211938,VALID,22.5411,VALID,85,VALID,0,
2009-03-19, 02:43:04,VALID,1007.88,VALID,0,VALID,85.4923,VALID,0,VALID,22.5039,VALID,85,VALID,0,
2009-03-19, 02:44:04,VALID,1007.89,VALID,0,VALID,85.4771,VALID,0,VALID,22.5039,VALID,85,VALID,0,
2009-03-19, 02:45:04,VALID,1007.84,VALID,0,VALID,85.4694,VALID,0,VALID,22.5056,VALID,85,VALID,0,
2009-03-19, 02:46:04,VALID,1007.85,VALID,0,VALID,85.4618,VALID,0,VALID,22.4844,VALID,85,VALID,0,
2009-03-19, 02:47:04,VALID,1007.83,VALID,0,VALID,85.4847,VALID,0,VALID,22.5056,VALID,85,VALID,0,
2009-03-19, 02:48:04,VALID,1007.83,VALID,0,VALID,85.4771,VALID,0,VALID,22.5056,VALID,85,VALID,0,
2009-03-19, 02:49:04,VALID,1007.83,VALID,0,VALID,85.4847,VALID,0,VALID,22.465,VALID,85,VALID,0,
2009-03-19, 02:50:04,VALID,1007.86,VALID,0,VALID,85.4771,VALID,0,VALID,22.4861,VALID,85,VALID,0,
2009-03-19, 02:51:04,VALID,1007.83,VALID,0,VALID,85.4923,VALID,0,VALID,22.4472,VALID,85,VALID,0,
2009-03-19, 02:52:04,VALID,1007.8,VALID,0,VALID,85.4847,VALID,0,VALID,22.4472,VALID,85,VALID,0,
2009-03-19, 02:53:04,VALID,1007.82,VALID,0,VALID,85.4923,VALID,0,VALID,22.426,VALID,85,VALID,0,
2009-03-19, 02:54:04,VALID,1007.83,VALID,0,VALID,85.4999,VALID,0,VALID,22.387,VALID,85,VALID,0,
2009-03-19, 02:55:04,VALID,1007.85,VALID,0,VALID,85.4694,VALID,0,VALID,22.387,VALID,85,VALID,0,
2009-03-19, 02:56:04,VALID,1007.83,VALID,0,VALID,85.5152,VALID,0,VALID,22.3887,VALID,85,VALID,0,
2009-03-19, 02:57:04,VALID,1007.83,VALID,0,VALID,85.5304,VALID,0,VALID,22.387,VALID,85,VALID,0,
2009-03-19, 02:58:04,VALID,1007.83,VALID,0,VALID,85.5304,VALID,0,VALID,22.4065,VALID,85,VALID,0,
2009-03-19, 02:59:04,VALID,1007.84,VALID,0,VALID,85.5762,VALID,0,VALID,22.426,VALID,85,VALID,0,
2009-03-19, 03:00:04,VALID,1007.84,VALID,0,VALID,85.5838,VALID,0,VALID,22.465,VALID,85,VALID,0,
2009-03-19, 03:01:04,VALID,1007.82,VALID,0,VALID,85.5991,VALID,0,VALID,22.465,VALID,85,VALID,0,
2009-03-19, 03:02:04,VALID,1007.84,VALID,0,VALID,85.6372,VALID,0,VALID,22.4667,VALID,85,VALID,0,
2009-03-19, 03:03:04,VALID,1007.8,VALID,0,VALID,85.6525,VALID,0,VALID,22.4861,VALID,85,VALID,0,
2009-03-19, 03:04:04,VALID,1007.8,VALID,0,VALID,85.6601,VALID,0,VALID,22.465,VALID,85,VALID,0,
2009-03-19, 03:05:04,VALID,1007.8,VALID,0,VALID,85.683,VALID,0,VALID,22.4861,VALID,85,VALID,0,
2009-03-19, 03:06:04,VALID,1007.81,VALID,0,VALID,85.6982,VALID,0,VALID,22.4455,VALID,85,VALID,0,
2009-03-19, 03:07:04,VALID,1007.82,VALID,0,VALID,85.6982,VALID,0,VALID,22.4861,VALID,85,VALID,0,
2009-03-19, 03:08:04,VALID,1007.82,VALID,0,VALID,85.7058,VALID,0,VALID,22.4667,VALID,85,VALID,0,
2009-03-19, 03:09:04,VALID,1007.83,VALID,0,VALID,85.7135,VALID,0,VALID,22.4455,VALID,85,VALID,0,
2009-03-19, 03:10:04,VALID,1007.81,VALID,0,VALID,85.7287,VALID,0,VALID,22.4667,VALID,85,VALID,0,
2009-03-19, 03:11:04,VALID,1007.81,VALID,0,VALID,85.7058,VALID,0,VALID,22.4277,VALID,85,VALID,0,
2009-03-19, 03:12:04,VALID,1007.82,VALID,0,VALID,85.744,VALID,0,VALID,22.387,VALID,85,VALID,0,
2009-03-19, 03:13:04,VALID,1007.82,VALID,0,VALID,85.7287,VALID,0,VALID,22.3887,VALID,85,VALID,0,
2009-03-19, 03:14:04,VALID,1007.83,VALID,0,VALID,85.7287,VALID,0,VALID,22.3693,VALID,85,VALID,0,
2009-03-19, 03:15:04,VALID,1007.82,VALID,0,VALID,85.744,VALID,0,VALID,22.3481,VALID,85,VALID,0,
2009-03-19, 03:16:04,VALID,1007.86,VALID,0,VALID,85.7516,VALID,0,VALID,22.3498,VALID,85,VALID,0,
2009-03-19, 03:17:04,VALID,1007.82,VALID,0,VALID,85.7592,VALID,0,VALID,22.3498,VALID,85,VALID,0,
2009-03-19, 03:18:04,VALID,1007.84,VALID,0,VALID,85.7668,VALID,0,VALID,22.3498,VALID,85,VALID,0,
2009-03-19, 03:19:04,VALID,1007.83,VALID,0,VALID,85.7745,VALID,0,VALID,22.3303,VALID,85,VALID,0,
2009-03-19, 03:20:04,VALID,1007.84,VALID,0,VALID,85.7745,VALID,0,VALID,22.3091,VALID,85,VALID,0,
2009-03-19, 03:21:04,VALID,1007.83,VALID,0,VALID,85.7974,VALID,0,VALID,22.3303,VALID,85,VALID,0,
2009-03-19, 03:22:04,VALID,1007.83,VALID,0,VALID,85.805,VALID,0,VALID,22.3108,VALID,85,VALID,0,
2009-03-19, 03:23:04,VALID,1007.82,VALID,0,VALID,85.7974,VALID,0,VALID,22.2897,VALID,85,VALID,0,
2009-03-19, 03:24:04,VALID,1007.81,VALID,0,VALID,85.8202,VALID,0,VALID,22.3303,VALID,85,VALID,0,
2009-03-19, 03:25:04,VALID,1007.81,VALID,0,VALID,85.8126,VALID,0,VALID,22.3303,VALID,85,VALID,0,
2009-03-19, 03:26:04,VALID,1007.79,VALID,0,VALID,85.8202,VALID,0,VALID,22.3108,VALID,85,VALID,0,
2009-03-19, 03:27:04,VALID,1007.82,VALID,0,VALID,85.8126,VALID,0,VALID,22.2897,VALID,85,VALID,0,
2009-03-19, 03:28:04,VALID,1007.8,VALID,0,VALID,85.8279,VALID,0,VALID,22.2914,VALID,85,VALID,0,
2009-03-19, 03:29:04,VALID,1007.84,VALID,0,VALID,85.8584,VALID,0,VALID,22.2914,VALID,85,VALID,0,
2009-03-19, 03:30:04,VALID,1007.87,VALID,0,VALID,85.8507,VALID,0,VALID,22.2914,VALID,85,VALID,0,
2009-03-19, 03:31:04,VALID,1007.88,VALID,0,VALID,85.866,VALID,0,VALID,22.2507,VALID,85,VALID,0,
2009-03-19, 03:32:04,VALID,1007.89,VALID,0,VALID,85.8736,VALID,0,VALID,22.2702,VALID,85,VALID,0,
2009-03-19, 03:33:04,VALID,1007.95,VALID,0,VALID,85.8736,VALID,0,VALID,22.2702,VALID,85,VALID,0,
2009-03-19, 03:34:04,VALID,1007.94,VALID,0,VALID,85.8889,VALID,0,VALID,22.2897,VALID,85,VALID,0,
2009-03-19, 03:35:04,VALID,1007.95,VALID,0,VALID,85.866,VALID,0,VALID,22.2702,VALID,85,VALID,0,
2009-03-19, 03:36:04,VALID,1007.96,VALID,0,VALID,85.8889,VALID,0,VALID,22.2914,VALID,85,VALID,0,
2009-03-19, 03:37:04,VALID,1007.96,VALID,0,VALID,85.8812,VALID,0,VALID,22.2702,VALID,85,VALID,0,
2009-03-19, 03:38:04,VALID,1008,VALID,0,VALID,85.8965,VALID,0,VALID,22.2719,VALID,85,VALID,0,
2009-03-19, 03:39:04,VALID,1007.98,VALID,0,VALID,85.8812,VALID,0,VALID,22.2914,VALID,85,VALID,0,
2009-03-19, 03:40:04,VALID,1008,VALID,0,VALID,85.9041,VALID,0,VALID,22.2719,VALID,85,VALID,0,
2009-03-19, 03:41:04,VALID,1008,VALID,0,VALID,85.9041,VALID,0,VALID,22.2719,VALID,85,VALID,0,
2009-03-19, 03:42:04,VALID,1008.02,VALID,0,VALID,85.9041,VALID,0,VALID,22.2702,VALID,85,VALID,0,
2009-03-19, 03:43:04,VALID,1008.02,VALID,0,VALID,85.9117,VALID,0,VALID,22.2719,VALID,85,VALID,0,
2009-03-19, 03:44:04,VALID,1008.04,VALID,0,VALID,85.8889,VALID,0,VALID,22.2134,VALID,85,VALID,0,
2009-03-19, 03:45:04,VALID,1008.07,VALID,0,VALID,85.8889,VALID,0,VALID,22.1745,VALID,85,VALID,0,
2009-03-19, 03:46:04,VALID,1008.08,VALID,0,VALID,85.8736,VALID,0,VALID,22.1745,VALID,85,VALID,0,
2009-03-19, 03:47:04,VALID,1008.1,VALID,0,VALID,85.866,VALID,0,VALID,22.194,VALID,85,VALID,0,
2009-03-19, 03:48:04,VALID,1008.12,VALID,0,VALID,85.8965,VALID,0,VALID,22.194,VALID,85,VALID,0,
2009-03-19, 03:49:04,VALID,1008.11,VALID,0,VALID,85.9041,VALID,0,VALID,22.1728,VALID,85,VALID,0,
2009-03-19, 03:50:04,VALID,1008.11,VALID,0,VALID,85.9041,VALID,0,VALID,22.194,VALID,85,VALID,0,
2009-03-19, 03:51:04,VALID,1008.14,VALID,0,VALID,85.9194,VALID,0,VALID,22.1923,VALID,85,VALID,0,
2009-03-19, 03:52:04,VALID,1008.11,VALID,0,VALID,85.9041,VALID,0,VALID,22.2329,VALID,85,VALID,0,
2009-03-19, 03:53:04,VALID,1008.11,VALID,0,VALID,85.9194,VALID,0,VALID,22.2524,VALID,85,VALID,0,
2009-03-19, 03:54:04,VALID,1008.13,VALID,0,VALID,85.9346,VALID,0,VALID,22.2524,VALID,85,VALID,0,
2009-03-19, 03:55:04,VALID,1008.17,VALID,0,VALID,85.927,VALID,0,VALID,22.2524,VALID,85,VALID,0,
2009-03-19, 03:56:04,VALID,1008.16,VALID,0,VALID,85.9346,VALID,0,VALID,22.2524,VALID,85,VALID,0,
2009-03-19, 03:57:04,VALID,1008.18,VALID,0,VALID,85.927,VALID,0,VALID,22.2134,VALID,85,VALID,0,
2009-03-19, 03:58:04,VALID,1008.19,VALID,0,VALID,85.9041,VALID,0,VALID,22.1923,VALID,85,VALID,0,
2009-03-19, 03:59:04,VALID,1008.23,VALID,0,VALID,85.8965,VALID,0,VALID,22.1728,VALID,85,VALID,0,